Location: B�hl
(48.6968°N, 8.1352°E)
Time: 11:10:23
(UTC+00:00)

Cosmos 1727 Rocket - Pass Details

Date: 08 March 2021
Orbit: 961 x 996 km, 82.9° (Epoch: 11 April)

Event Time Altitude Azimuth Distance (km) Brightness Sun altitude
Rises 19:07:53 0° 350° (N) 3,660 7.3 -18.1°
Reaches altitude 10° 19:10:24 10° 350° (N) 2,711 6.6 -18.5°
Maximum altitude 19:16:36 84° 264° (W) 979 4.0 -19.5°
Drops below altitude 10° 19:22:49 10° 176° (S) 2,710 6.1 -20.5°
Sets 19:25:19 0° 176° (S) 3,658 6.8 -20.9°
